Location: Казань
(55.7824°N, 49.1242°E)
Time: 05:21:47
(UTC+03:00)

ISS - Visible Passes

Search period start: 05 December 2021 00:00
Search period end: 15 December 2021 00:00
Orbit: 417 x 422 km, 51.6° (Epoch: 04 December)

Date Brightness Start Highest point End Pass type
(mag) Time Alt. Az. Time Alt. Az. Time Alt. Az.
05 Dec -2.1 16:05:04 10° W 16:08:12 35° SSW 16:11:20 10° SE visible
05 Dec -0.9 17:42:16 10° WSW 17:44:23 16° SSW 17:46:30 10° S visible
06 Dec -1.1 16:54:41 10° WSW 16:57:15 20° SSW 16:59:49 10° SSE visible
07 Dec -1.4 16:07:15 10° W 16:10:06 25° SSW 16:12:57 10° SE visible
08 Dec -0.4 16:57:49 10° WSW 16:59:02 12° SW 17:00:14 10° SSW visible
09 Dec -0.6 16:09:53 10° WSW 16:11:59 15° SSW 16:14:05 10° S visible
